Stündliche Wetter Cotiujenii Mari

Heute, 29 Juli, Donnerstag

Zeit Temperatur Niederschläge Wind Luftdruck Luftfeuchtigkeit
00:00 +23°C° 0 mm 1 m/S 740 mmHg 73%
01:00 +23°C° 0 mm 1 m/S 740 mmHg 74%
02:00 +23°C° 0 mm 1 m/S 739 mmHg 73%
03:00 +22°C° 0 mm 1 m/S 739 mmHg 73%
04:00 +22°C° 0 mm 1 m/S 739 mmHg 74%
05:00 +22°C° 0 mm 1 m/S 739 mmHg 75%
06:00 +24°C° 0 mm 1 m/S 739 mmHg 69%
07:00 +25°C° 0 mm 1 m/S 739 mmHg 63%
08:00 +27°C° 0 mm 2 m/S 739 mmHg 57%
09:00 +29°C° 0 mm 2 m/S 739 mmHg 52%
10:00 +31°C° 0 mm 3 m/S 739 mmHg 46%
11:00 +34°C° 0 mm 3 m/S 739 mmHg 41%
12:00 +34°C° 0 mm 3 m/S 738 mmHg 38%
13:00 +35°C° 0 mm 4 m/S 738 mmHg 36%
14:00 +36°C° 0 mm 4 m/S 738 mmHg 33%
15:00 +35°C° 0.1 mm 5 m/S 737 mmHg 39%
16:00 +33°C° 0.1 mm 6 m/S 737 mmHg 44%
17:00 +32°C° 0.1 mm 7 m/S 737 mmHg 50%
18:00 +27°C° 2 mm 5 m/S 737 mmHg 62%
19:00 +23°C° 2 mm 4 m/S 738 mmHg 74%
20:00 +20°C° 2 mm 2 m/S 738 mmHg 86%
21:00 +20°C° 0 mm 3 m/S 738 mmHg 86%
22:00 +20°C° 0 mm 3 m/S 738 mmHg 86%
23:00 +19°C° 0 mm 4 m/S 738 mmHg 86%

Morgen, 30 Juli, Freitag

Zeit Temperatur Niederschläge Wind Luftdruck Luftfeuchtigkeit
00:00 +19°C° 0 mm 3 m/S 738 mmHg 88%
01:00 +19°C° 0 mm 3 m/S 739 mmHg 91%
02:00 +19°C° 0 mm 2 m/S 739 mmHg 93%
03:00 +19°C° 0 mm 2 m/S 739 mmHg 93%
04:00 +19°C° 0 mm 2 m/S 739 mmHg 93%
05:00 +19°C° 0 mm 2 m/S 739 mmHg 93%
06:00 +21°C° 0 mm 2 m/S 739 mmHg 86%
07:00 +22°C° 0 mm 3 m/S 739 mmHg 79%
08:00 +25°C° 0 mm 3 m/S 740 mmHg 71%
09:00 +26°C° 0 mm 3 m/S 740 mmHg 64%
10:00 +28°C° 0 mm 3 m/S 740 mmHg 57%
11:00 +29°C° 0 mm 3 m/S 740 mmHg 50%
12:00 +29°C° 0 mm 3 m/S 740 mmHg 46%
13:00 +30°C° 0 mm 3 m/S 739 mmHg 43%
14:00 +31°C° 0 mm 3 m/S 739 mmHg 40%
15:00 +30°C° 0 mm 3 m/S 739 mmHg 40%
16:00 +30°C° 0 mm 3 m/S 739 mmHg 40%
17:00 +30°C° 0 mm 3 m/S 739 mmHg 41%
18:00 +28°C° 0 mm 2 m/S 739 mmHg 46%
19:00 +27°C° 0 mm 1 m/S 739 mmHg 51%
20:00 +25°C° 0 mm 1 m/S 739 mmHg 57%
21:00 +22°C° 0 mm 0 m/S 739 mmHg 57%
22:00 +22°C° 0 mm 0 m/S 739 mmHg 58%
23:00 +21°C° 0 mm 0 m/S 739 mmHg 59%

übermorgen, 31 Juli, Samstag

Zeit Temperatur Niederschläge Wind Luftdruck Luftfeuchtigkeit
00:00 +21°C° 0 mm 0 m/S 739 mmHg 60%
01:00 +20°C° 0 mm 0 m/S 739 mmHg 61%
02:00 +20°C° 0 mm 0 m/S 739 mmHg 63%
03:00 +20°C° 0 mm 0 m/S 739 mmHg 64%
04:00 +19°C° 0 mm 0 m/S 739 mmHg 65%
05:00 +19°C° 0 mm 0 m/S 739 mmHg 66%
06:00 +23°C° 0 mm 1 m/S 739 mmHg 61%
07:00 +25°C° 0 mm 1 m/S 739 mmHg 57%
08:00 +27°C° 0 mm 1 m/S 739 mmHg 53%
09:00 +28°C° 0 mm 2 m/S 739 mmHg 48%
10:00 +29°C° 0 mm 2 m/S 739 mmHg 44%
11:00 +31°C° 0 mm 3 m/S 739 mmHg 40%
12:00 +33°C° 0 mm 3 m/S 739 mmHg 38%
13:00 +33°C° 0 mm 3 m/S 739 mmHg 36%
14:00 +34°C° 0 mm 3 m/S 739 mmHg 34%
15:00 +34°C° 0 mm 3 m/S 738 mmHg 35%
16:00 +34°C° 0 mm 3 m/S 738 mmHg 36%
17:00 +33°C° 0 mm 3 m/S 738 mmHg 37%
18:00 +31°C° 0 mm 3 m/S 738 mmHg 41%
19:00 +29°C° 0 mm 3 m/S 737 mmHg 45%
20:00 +27°C° 0 mm 3 m/S 737 mmHg 48%
21:00 +26°C° 0.1 mm 3 m/S 737 mmHg 52%
22:00 +25°C° 0.1 mm 3 m/S 738 mmHg 55%
23:00 +24°C° 0.1 mm 3 m/S 738 mmHg 59%

1 August, Sonntag

Zeit Temperatur Niederschläge Wind Luftdruck Luftfeuchtigkeit
00:00 +24°C° 0 mm 3 m/S 737 mmHg 64%
01:00 +23°C° 0 mm 2 m/S 737 mmHg 69%
02:00 +23°C° 0 mm 2 m/S 737 mmHg 75%
03:00 +21°C° 0 mm 2 m/S 737 mmHg 78%
04:00 +21°C° 0 mm 2 m/S 738 mmHg 82%
05:00 +20°C° 0 mm 2 m/S 738 mmHg 86%
06:00 +21°C° 0 mm 2 m/S 738 mmHg 80%
07:00 +24°C° 0 mm 2 m/S 738 mmHg 74%
08:00 +25°C° 0 mm 2 m/S 739 mmHg 68%
09:00 +27°C° 0 mm 2 m/S 739 mmHg 63%
10:00 +28°C° 0 mm 2 m/S 739 mmHg 57%
11:00 +30°C° 0 mm 1 m/S 739 mmHg 52%
12:00 +31°C° 0 mm 1 m/S 739 mmHg 49%
13:00 +32°C° 0 mm 1 m/S 739 mmHg 46%
14:00 +33°C° 0 mm 1 m/S 738 mmHg 43%
15:00 +33°C° 0 mm 1 m/S 738 mmHg 43%
16:00 +33°C° 0 mm 1 m/S 738 mmHg 43%
17:00 +33°C° 0 mm 1 m/S 737 mmHg 43%
18:00 +31°C° 0 mm 1 m/S 737 mmHg 48%
19:00 +29°C° 0 mm 1 m/S 737 mmHg 52%
20:00 +28°C° 0 mm 1 m/S 738 mmHg 57%
21:00 +27°C° 0 mm 1 m/S 737 mmHg 58%
22:00 +27°C° 0 mm 1 m/S 737 mmHg 59%
23:00 +26°C° 0 mm 2 m/S 737 mmHg 60%

2 August, Montag

Zeit Temperatur Niederschläge Wind Luftdruck Luftfeuchtigkeit
00:00 +25°C° 0.2 mm 2 m/S 736 mmHg 65%
01:00 +25°C° 0.2 mm 2 m/S 736 mmHg 71%
02:00 +24°C° 0.2 mm 2 m/S 736 mmHg 76%
03:00 +23°C° 0 mm 2 m/S 736 mmHg 76%
04:00 +23°C° 0 mm 2 m/S 736 mmHg 77%
05:00 +23°C° 0 mm 2 m/S 735 mmHg 78%
06:00 +25°C° 0 mm 2 m/S 735 mmHg 72%
07:00 +26°C° 0 mm 3 m/S 736 mmHg 66%
08:00 +28°C° 0 mm 3 m/S 736 mmHg 59%
09:00 +30°C° 0 mm 4 m/S 736 mmHg 53%
10:00 +33°C° 0 mm 5 m/S 736 mmHg 46%
11:00 +35°C° 0 mm 6 m/S 736 mmHg 40%
12:00 +35°C° 0 mm 6 m/S 735 mmHg 38%
13:00 +36°C° 0 mm 7 m/S 735 mmHg 35%
14:00 +38°C° 0 mm 7 m/S 734 mmHg 33%
15:00 +33°C° 0.9 mm 6 m/S 735 mmHg 48%
16:00 +27°C° 0.9 mm 5 m/S 736 mmHg 63%
17:00 +22°C° 0.9 mm 3 m/S 736 mmHg 78%
18:00 +22°C° 0.9 mm 3 m/S 737 mmHg 82%
19:00 +21°C° 0.9 mm 3 m/S 737 mmHg 86%
20:00 +21°C° 0.9 mm 3 m/S 738 mmHg 90%
21:00 +21°C° 0.3 mm 4 m/S 738 mmHg 89%
22:00 +20°C° 0.3 mm 5 m/S 738 mmHg 88%
23:00 +20°C° 0.3 mm 6 m/S 739 mmHg 87%

3 August, Dienstag

Zeit Temperatur Niederschläge Wind Luftdruck Luftfeuchtigkeit
00:00 +19°C° 0 mm 5 m/S 739 mmHg 87%
01:00 +17°C° 0 mm 5 m/S 739 mmHg 86%
02:00 +16°C° 0 mm 5 m/S 740 mmHg 85%
03:00 +15°C° 0 mm 4 m/S 740 mmHg 86%
04:00 +14°C° 0 mm 3 m/S 741 mmHg 87%
05:00 +13°C° 0 mm 3 m/S 741 mmHg 87%
06:00 +16°C° 0 mm 3 m/S 741 mmHg 81%
07:00 +17°C° 0 mm 3 m/S 742 mmHg 75%
08:00 +18°C° 0 mm 4 m/S 742 mmHg 69%
09:00 +19°C° 0 mm 3 m/S 742 mmHg 62%
10:00 +21°C° 0 mm 3 m/S 742 mmHg 56%
11:00 +22°C° 0 mm 3 m/S 743 mmHg 50%
12:00 +24°C° 0 mm 3 m/S 742 mmHg 47%
13:00 +25°C° 0 mm 2 m/S 742 mmHg 44%
14:00 +26°C° 0 mm 2 m/S 742 mmHg 41%
15:00 +26°C° 0 mm 2 m/S 742 mmHg 41%
16:00 +26°C° 0 mm 2 m/S 742 mmHg 41%
17:00 +26°C° 0 mm 1 m/S 742 mmHg 41%
18:00 +25°C° 0 mm 1 m/S 742 mmHg 46%
19:00 +23°C° 0 mm 1 m/S 742 mmHg 50%
20:00 +20°C° 0 mm 0 m/S 742 mmHg 55%
21:00 +19°C° 0 mm 0 m/S 742 mmHg 56%
22:00 +19°C° 0 mm 0 m/S 742 mmHg 58%
23:00 +18°C° 0 mm 0 m/S 743 mmHg 59%
Mehr zeigen

Wir brauchen deine Erlaubnis

Meteoprog und unser Service Anbieter werden persönliche Daten aufbewahren, so wie Cookies, Geräte Bezeichnung oder ähnliche Technologien von deinem Gerät und Prozess, so wie Persönliche Daten Inhalte und Werbungen, genauso wie social Media und den Verkehr zu analysieren.

  • Aufbewahrung und/oder Zugang zu deiner Geräte Informationen.

    Cookies, Geräte Bezeichnung oder andere Informationen, können aufbewahrt oder Zugang zu deinem Gerät erhalten, für den Grund, der oben angegeben wird.

  • Personalisierte Werbung und Inhalte, Messungen, Einblick in das Publikum und Produkt Entwicklung.

    Werbungen und Inhalte können personalisiert werden, basierend auf ein Profil. Mehr Daten können besser personalisierte Werbungen und Inhalte hinzufügen. Werbung und Inhalte können gezeigt und gemessen werden. Einblicke über das Publikum, welche die Werbung gesehen haben und den Inhalt, können abgeleitet werden. So wie Daten können genutzt werden, um es zu verbessern oder die Benutzer Erfahrung zu verbessern das System und die Software.

Wenn du “Ich stimme zu” klickst, erlaubst du uns, die Cookies zu benutzen die Geräte Bezeichnung, den Web oder ähnliche Technologien zu benutzen. Deine Settings, können in deinem Gerät bei deinem Browser geändert werden.

Für den bestimmten Zweck, berechtigten Interessen beruhen darauf, mehr als auf den Inhalt. Du kannst mehr darüber in unseren Privaten und Cookie Politik lesen.